Powrót do katalogu

ASNARO-2

AktywnyNaukaSSO
NORAD 43152·PAYLOAD·🇯🇵 Japan

Wystrzelony Jan 17, 2018 z Uchinoura Space Center

Loading…

Następne Przeloty (najbliższe 24 godziny)

TLE

ŚwieżeSource: Space-Track

Epoka: Sep 14, 2026, 13:48 UTC

1 43152U 18007A   26257.57543260  .00006066  00000-0  26532-3 0  9994
2 43152  97.4000 263.1160 0001744  91.1907 268.9529 15.22431743481016

Śledź ASNARO-2 w czasie rzeczywistym z AllMySat

Download on the App Store